Location: Newark
(40.9833°N, 0.0333°W)
Time: 18:26:33
(UTC+00:00)

Transit 4A - Pass Details

Date: 30 October 2020
Orbit: 862 x 982 km, 66.8° (Epoch: 23 November)

Event Time Altitude Azimuth Distance (km) Brightness Sun altitude
Rises 15:32:29 0° 235° (SW) 3,591 13.0 13.7°
Reaches altitude 10° 15:35:11 10° 244° (WSW) 2,667 13.2 13.3°
Maximum altitude 15:40:54 37° 310° (NW) 1,469 9.3 12.4°
Drops below altitude 10° 15:46:47 10° 16° (NNE) 2,734 10.0 11.4°
Sets 15:49:37 0° 25° (NNE) 3,691 10.5 11.0°
